| time (UTC) | temp F | wind direction | speed MPH | gust MPH | rain 1hr in | rain 24hr in | rain mn in | humidity % | barometer mb |
| 20260901084928 | 74 | 196 | 1.0 | 1.0 | 0.00 | 0.00 | 0.00 | 87 | |
| 20260901084424 | 74 | 196 | 0.0 | 0.0 | 0.00 | 0.00 | 0.00 | 87 | |
| 20260901083919 | 74 | 219 | 1.0 | 3.0 | 0.00 | 0.00 | 0.00 | 87 | |
| 20260901083414 | 74 | 231 | 2.0 | 3.0 | 0.00 | 0.00 | 0.00 | 86 | |
| 20260901082912 | 74 | 132 | 1.0 | 1.0 | 0.00 | 0.00 | 0.00 | 86 | |
| 20260901082408 | 74 | 246 | 1.0 | 3.0 | 0.00 | 0.00 | 0.00 | 86 | |
| 20260901081902 | 74 | 275 | 0.0 | 1.0 | 0.00 | 0.00 | 0.00 | 87 | |
| 20260901081358 | 73 | 172 | 0.0 | 0.0 | 0.00 | 0.00 | 0.00 | 87 | |
| 20260901080857 | 73 | 173 | 0.0 | 1.0 | 0.00 | 0.00 | 0.00 | 88 | |
| 20260901080351 | 73 | 172 | 0.0 | 1.0 | 0.00 | 0.00 | 0.00 | 88 | |
| 20260901075845 | 73 | 134 | 0.0 | 0.0 | 0.00 | 0.00 | 0.00 | 88 | |
| 20260901075341 | 73 | 134 | 0.0 | 1.0 | 0.00 | 0.00 | 0.00 | 88 | |
| 20260901074830 | 73 | 134 | 0.0 | 0.0 | 0.00 | 0.00 | 0.00 | 88 | |
| 20260901074325 | 73 | 134 | 0.0 | 3.0 | 0.00 | 0.00 | 0.00 | 88 | |
| 20260901073820 | 73 | 135 | 0.0 | 0.0 | 0.00 | 0.00 | 0.00 | 88 | |
| 20260901073316 | 73 | 274 | 1.0 | 1.0 | 0.00 | 0.00 | 0.00 | 88 | |
| 20260901072812 | 73 | 275 | 1.0 | 1.0 | 0.00 | 0.00 | 0.00 | 88 | |
| 20260901072311 | 73 | 275 | 0.0 | 0.0 | 0.00 | 0.00 | 0.00 | 88 | |
| 20260901071807 | 73 | 275 | 1.0 | 1.0 | 0.00 | 0.00 | 0.00 | 89 | |
| 20260901071305 | 73 | 275 | 0.0 | 0.0 | 0.00 | 0.00 | 0.00 | 90 | |
| 20260901070804 | 73 | 275 | 0.0 | 1.0 | 0.00 | 0.00 | 0.00 | 89 | |
| 20260901070300 | 72 | 275 | 1.0 | 1.0 | 0.00 | 0.00 | 0.00 | 91 | |
| 20260901065759 | 72 | 275 | 0.0 | 0.0 | 0.00 | 0.00 | 0.00 | 91 | |
| 20260901065254 | 72 | 275 | 1.0 | 1.0 | 0.00 | 0.00 | 0.00 | 92 | |
| 20260901064750 | 72 | 275 | 0.0 | 0.0 | 0.00 | 0.00 | 0.00 | 92 | |
| 20260901064246 | 72 | 275 | 0.0 | 1.0 | 0.00 | 0.00 | 0.00 | 92 | |
| 20260901063744 | 72 | 275 | 0.0 | 0.0 | 0.00 | 0.00 | 0.00 | 93 | |
| 20260901063239 | 72 | 275 | 0.0 | 0.0 | 0.00 | 0.00 | 0.00 | 93 | |
| 20260901062736 | 72 | 275 | 0.0 | 0.0 | 0.00 | 0.00 | 0.00 | 93 | |
| 20260901062231 | 72 | 275 | 0.0 | 1.0 | 0.00 | 0.00 | 0.00 | 93 | |
| 20260901061727 | 72 | 276 | 0.0 | 1.0 | 0.00 | 0.00 | 0.00 | 93 | |
| 20260901061226 | 72 | 276 | 0.0 | 0.0 | 0.00 | 0.00 | 0.00 | 93 | |
| 20260901060721 | 72 | 276 | 0.0 | 0.0 | 0.00 | 0.00 | 0.00 | 93 | |
| 20260901060217 | 72 | 276 | 0.0 | 0.0 | 0.00 | 0.00 | 0.00 | 93 | |
| 20260901055712 | 72 | 276 | 0.0 | 0.0 | 0.00 | 0.00 | 0.00 | 93 | |
| 20260901055209 | 72 | 276 | 0.0 | 0.0 | 0.00 | 0.00 | 0.00 | 93 | |
| 20260901054706 | 71 | 276 | 0.0 | 0.0 | 0.00 | 0.00 | 0.00 | 94 | |
| 20260901054202 | 71 | 276 | 0.0 | 1.0 | 0.00 | 0.00 | 0.00 | 94 | |
| 20260901053657 | 71 | 275 | 0.0 | 0.0 | 0.00 | 0.00 | 0.00 | 94 | |
| 20260901053153 | 71 | 276 | 0.0 | 0.0 | 0.00 | 0.00 | 0.00 | 95 | |
| 20260901052648 | 71 | 276 | 0.0 | 0.0 | 0.00 | 0.00 | 0.00 | 95 | |
| 20260901052143 | 71 | 276 | 1.0 | 1.0 | 0.00 | 0.00 | 0.00 | 96 | |
| 20260901051642 | 71 | 276 | 0.0 | 0.0 | 0.00 | 0.00 | 0.00 | 96 | |
| 20260901051142 | 71 | 276 | 0.0 | 0.0 | 0.00 | 0.00 | 0.00 | 96 | |
| 20260901050637 | 71 | 276 | 0.0 | 0.0 | 0.00 | 0.00 | 0.00 | 97 | |
| 20260901050132 | 71 | 276 | 0.0 | 0.0 | 0.00 | 0.00 | 0.00 | 96 | |
| 20260901045627 | 71 | 276 | 0.0 | 0.0 | 0.00 | 0.00 | 0.00 | 97 | |
| 20260901045122 | 71 | 276 | 0.0 | 0.0 | 0.00 | 0.00 | 0.00 | 96 | |
| 20260901044618 | 71 | 275 | 0.0 | 0.0 | 0.00 | 0.00 | 0.00 | 96 | |
| 20260901044114 | 71 | 275 | 0.0 | 0.0 | 0.00 | 0.00 | 0.00 | 96 | |
| 20260901043609 | 71 | 275 | 0.0 | 0.0 | 0.00 | 0.00 | 0.00 | 96 | |
| 20260901043104 | 71 | 275 | 1.0 | 0.0 | 0.00 | 0.00 | 0.00 | 96 | |
| 20260901042603 | 71 | 275 | 0.0 | 0.0 | 0.00 | 0.00 | 0.00 | 96 | |
| 20260901042059 | 71 | 276 | 1.0 | 1.0 | 0.00 | 0.00 | 0.00 | 96 | |
| 20260901041554 | 71 | 275 | 0.0 | 0.0 | 0.00 | 0.00 | 0.00 | 97 | |
| 20260901041049 | 71 | 276 | 0.0 | 0.0 | 0.00 | 0.00 | 0.00 | 96 | |
| 20260901040548 | 71 | 276 | 0.0 | 1.0 | 0.00 | 0.00 | 0.00 | 96 | |
| 20260901040043 | 71 | 276 | 0.0 | 0.0 | 0.00 | 0.00 | 0.00 | 96 | |
| 20260901035541 | 71 | 276 | 1.0 | 1.0 | 0.00 | 0.01 | 0.01 | 96 | |
| 20260901035039 | 71 | 276 | 1.0 | 1.0 | 0.00 | 0.01 | 0.01 | 96 | |
| 20260901034534 | 71 | 276 | 0.0 | 0.0 | 0.00 | 0.01 | 0.01 | 95 | |
| 20260901034029 | 71 | 276 | 0.0 | 0.0 | 0.00 | 0.01 | 0.01 | 95 | |
| 20260901033527 | 71 | 276 | 0.0 | 0.0 | 0.00 | 0.01 | 0.01 | 95 | |
| 20260901033027 | 71 | 276 | 0.0 | 0.0 | 0.00 | 0.01 | 0.01 | 95 | |
| 20260901032526 | 71 | 276 | 0.0 | 0.0 | 0.00 | 0.01 | 0.01 | 95 | |
| 20260901032021 | 71 | 276 | 0.0 | 0.0 | 0.00 | 0.01 | 0.01 | 94 | |
| 20260901031517 | 72 | 276 | 0.0 | 0.0 | 0.00 | 0.01 | 0.01 | 94 | |
| 20260901031012 | 72 | 276 | 0.0 | 0.0 | 0.00 | 0.01 | 0.01 | 94 | |
| 20260901030512 | 72 | 276 | 0.0 | 0.0 | 0.00 | 0.01 | 0.01 | 93 | |
| 20260901030007 | 72 | 276 | 0.0 | 0.0 | 0.00 | 0.01 | 0.01 | 93 | |
| 20260901025501 | 72 | 275 | 0.0 | 0.0 | 0.00 | 0.01 | 0.01 | 93 | |
| 20260901025001 | 72 | 276 | 0.0 | 0.0 | 0.00 | 0.01 | 0.01 | 93 | |
| 20260901024456 | 72 | 276 | 0.0 | 0.0 | 0.00 | 0.01 | 0.01 | 93 | |
| 20260901023954 | 73 | 275 | 0.0 | 0.0 | 0.00 | 0.01 | 0.01 | 93 | |
| 20260901023449 | 73 | 275 | 0.0 | 1.0 | 0.00 | 0.01 | 0.01 | 93 | |
| 20260901022943 | 73 | 28 | 1.0 | 1.0 | 0.00 | 0.01 | 0.01 | 92 | |
| 20260901022440 | 73 | 28 | 0.0 | 1.0 | 0.00 | 0.01 | 0.01 | 92 | |
| 20260901021934 | 73 | 29 | 0.0 | 0.0 | 0.00 | 0.01 | 0.01 | 92 | |
| 20260901021430 | 73 | 29 | 0.0 | 0.0 | 0.00 | 0.01 | 0.01 | 91 | |
| 20260901020925 | 73 | 28 | 0.0 | 0.0 | 0.00 | 0.01 | 0.01 | 92 | |
| 20260901020420 | 74 | 29 | 1.0 | 1.0 | 0.00 | 0.01 | 0.01 | 91 | |
| 20260901015919 | 74 | 29 | 0.0 | 0.0 | 0.00 | 0.01 | 0.01 | 90 | |
| 20260901015416 | 75 | 29 | 1.0 | 1.0 | 0.00 | 0.01 | 0.01 | 88 | |
| 20260901014915 | 75 | 29 | 0.0 | 0.0 | 0.00 | 0.01 | 0.01 | 86 | |
| 20260901014412 | 75 | 29 | 0.0 | 0.0 | 0.00 | 0.01 | 0.01 | 86 | |
| 20260901013907 | 75 | 28 | 0.0 | 1.0 | 0.00 | 0.01 | 0.01 | 86 | |
| 20260901013402 | 76 | 153 | 1.0 | 1.0 | 0.00 | 0.01 | 0.01 | 85 | |
| 20260901012858 | 76 | 154 | 1.0 | 1.0 | 0.00 | 0.01 | 0.01 | 82 | |
| 20260901012353 | 75 | 153 | 0.0 | 0.0 | 0.00 | 0.01 | 0.01 | 84 | |
| 20260901011848 | 75 | 153 | 0.0 | 3.0 | 0.00 | 0.01 | 0.01 | 84 | |
| 20260901011344 | 75 | 161 | 2.0 | 3.0 | 0.00 | 0.01 | 0.01 | 84 | |
| 20260901010843 | 76 | 239 | 0.0 | 0.0 | 0.00 | 0.01 | 0.01 | 82 | |
| 20260901010337 | 76 | 240 | 0.0 | 0.0 | 0.00 | 0.01 | 0.01 | 81 | |
| 20260901005836 | 76 | 240 | 1.0 | 1.0 | 0.00 | 0.01 | 0.01 | 81 | |
| 20260901005331 | 76 | 240 | 1.0 | 1.0 | 0.00 | 0.01 | 0.01 | 80 | |
| 20260901004826 | 77 | 240 | 0.0 | 0.0 | 0.00 | 0.01 | 0.01 | 81 | |
| 20260901004320 | 77 | 240 | 0.0 | 0.0 | 0.00 | 0.01 | 0.01 | 81 | |
| 20260901003814 | 77 | 240 | 0.0 | 0.0 | 0.00 | 0.01 | 0.01 | 79 | |
| 20260901003309 | 77 | 240 | 0.0 | 0.0 | 0.00 | 0.01 | 0.01 | 78 | |
| 20260901002803 | 77 | 240 | 0.0 | 0.0 | 0.00 | 0.01 | 0.01 | 78 | |
| 20260901002258 | 78 | 240 | 0.0 | 0.0 | 0.00 | 0.01 | 0.01 | 77 | |
| 20260901001753 | 78 | 240 | 0.0 | 0.0 | 0.00 | 0.01 | 0.01 | 77 | |
| 20260901001248 | 78 | 240 | 0.0 | 0.0 | 0.00 | 0.01 | 0.01 | 75 | |
| 20260901000738 | 78 | 240 | 0.0 | 0.0 | 0.00 | 0.01 | 0.01 | 75 | |
| 20260901000233 | 79 | 240 | 0.0 | 0.0 | 0.00 | 0.01 | 0.01 | 75 | |
| 20260831235725 | 79 | 240 | 0.0 | 0.0 | 0.00 | 0.01 | 0.01 | 74 | |
| 20260831235221 | 79 | 240 | 0.0 | 0.0 | 0.00 | 0.01 | 0.01 | 74 | |
| 20260831234721 | 79 | 240 | 0.0 | 0.0 | 0.00 | 0.01 | 0.01 | 73 | |
| 20260831234216 | 79 | 240 | 0.0 | 0.0 | 0.00 | 0.01 | 0.01 | 72 | |
| 20260831233711 | 79 | 240 | 0.0 | 1.0 | 0.00 | 0.01 | 0.01 | 74 | |
| 20260831233207 | 79 | 241 | 0.0 | 1.0 | 0.00 | 0.01 | 0.01 | 76 | |
| 20260831232706 | 79 | 317 | 1.0 | 1.0 | 0.00 | 0.01 | 0.01 | 75 | |
| 20260831232203 | 79 | 317 | 0.0 | 1.0 | 0.00 | 0.01 | 0.01 | 78 | |
| 20260831231659 | 80 | 317 | 0.0 | 1.0 | 0.00 | 0.01 | 0.01 | 79 | |
| 20260831231155 | 80 | 317 | 0.0 | 1.0 | 0.00 | 0.01 | 0.01 | 77 | |
| 20260831230654 | 81 | 317 | 1.0 | 1.0 | 0.00 | 0.01 | 0.01 | 77 | |
| 20260831230150 | 82 | 317 | 0.0 | 1.0 | 0.00 | 0.01 | 0.01 | 74 | |
| 20260831225649 | 83 | 317 | 1.0 | 1.0 | 0.00 | 0.01 | 0.01 | 71 | |
| 20260831225144 | 83 | 318 | 0.0 | 0.0 | 0.00 | 0.01 | 0.01 | 70 | |
| 20260831224639 | 84 | 317 | 0.0 | 0.0 | 0.00 | 0.01 | 0.01 | 71 | |
| 20260831224135 | 84 | 317 | 0.0 | 0.0 | 0.00 | 0.01 | 0.01 | 68 | |
| 20260831223630 | 84 | 317 | 0.0 | 0.0 | 0.00 | 0.01 | 0.01 | 65 | |
| 20260831223126 | 84 | 317 | 0.0 | 1.0 | 0.00 | 0.01 | 0.01 | 67 | |
| 20260831222622 | 85 | 342 | 0.0 | 0.0 | 0.00 | 0.01 | 0.01 | 63 | |
| 20260831222118 | 84 | 342 | 0.0 | 0.0 | 0.00 | 0.01 | 0.01 | 66 | |
| 20260831221613 | 83 | 342 | 1.0 | 1.0 | 0.00 | 0.01 | 0.01 | 69 | |
| 20260831221114 | 84 | 15 | 0.0 | 0.0 | 0.00 | 0.01 | 0.01 | 68 | |
| 20260831220608 | 84 | 15 | 0.0 | 0.0 | 0.00 | 0.01 | 0.01 | 68 | |
| 20260831220104 | 84 | 15 | 0.0 | 0.0 | 0.00 | 0.01 | 0.01 | 66 | |
| 20260831215559 | 85 | 14 | 1.0 | 3.0 | 0.00 | 0.01 | 0.01 | 62 | |
| 20260831215054 | 85 | 37 | 2.0 | 4.0 | 0.00 | 0.01 | 0.01 | 60 | |
| 20260831214547 | 86 | 4 | 3.0 | 3.0 | 0.00 | 0.01 | 0.01 | 60 | |
| 20260831214042 | 87 | 6 | 1.0 | 1.0 | 0.00 | 0.01 | 0.01 | 60 | |
| 20260831213538 | 87 | 6 | 1.0 | 1.0 | 0.00 | 0.01 | 0.01 | 58 | |
| 20260831213028 | 89 | 293 | 2.0 | 3.0 | 0.00 | 0.01 | 0.01 | 55 | |
| 20260831212524 | 89 | 236 | 1.0 | 1.0 | 0.00 | 0.01 | 0.01 | 56 | |
| 20260831212019 | 88 | 18 | 0.0 | 0.0 | 0.00 | 0.01 | 0.01 | 59 | |
| 20260831211513 | 88 | 310 | 1.0 | 3.0 | 0.00 | 0.01 | 0.01 | 58 | |
| 20260831211012 | 88 | 322 | 2.0 | 4.0 | 0.00 | 0.01 | 0.01 | 59 | |
| 20260831210508 | 86 | 357 | 0.0 | 3.0 | 0.00 | 0.01 | 0.01 | 60 | |
| 20260831210004 | 86 | 246 | 3.0 | 4.0 | 0.00 | 0.01 | 0.01 | 61 | |
| 20260831205458 | 86 | 212 | 2.0 | 3.0 | 0.00 | 0.01 | 0.01 | 64 | |
| 20260831204954 | 85 | 204 | 1.0 | 1.0 | 0.00 | 0.01 | 0.01 | 65 | |
| 20260831204449 | 84 | 204 | 0.0 | 0.0 | 0.00 | 0.01 | 0.01 | 68 | |
| 20260831203947 | 84 | 187 | 0.0 | 1.0 | 0.00 | 0.01 | 0.01 | 69 | |
| 20260831203442 | 84 | 220 | 0.0 | 0.0 | 0.00 | 0.01 | 0.01 | 68 | |
| 20260831202940 | 83 | 220 | 0.0 | 0.0 | 0.00 | 0.01 | 0.01 | 70 | |
| 20260831202435 | 82 | 220 | 0.0 | 0.0 | 0.00 | 0.01 | 0.01 | 70 | 1019.7 |
| 20260831201929 | 82 | 220 | 1.0 | 3.0 | 0.00 | 0.01 | 0.01 | 66 | 1019.7 |
| 20260831201428 | 83 | 234 | 1.0 | 1.0 | 0.00 | 0.01 | 0.01 | 69 | 1019.7 |
| 20260831200924 | 84 | 280 | 1.0 | 5.0 | 0.00 | 0.01 | 0.01 | 64 | 1019.7 |
| 20260831200419 | 84 | 112 | 1.0 | 1.0 | 0.00 | 0.01 | 0.01 | 65 | 1019.7 |
| 20260831195914 | 85 | 128 | 0.0 | 3.0 | 0.00 | 0.01 | 0.01 | 62 | 1019.7 |
| 20260831195409 | 86 | 286 | 1.0 | 1.0 | 0.00 | 0.01 | 0.01 | 59 | 1019.7 |
| 20260831194904 | 86 | 31 | 1.0 | 5.0 | 0.00 | 0.01 | 0.01 | 58 | 1019.7 |
| 20260831194400 | 86 | 61 | 0.0 | 1.0 | 0.00 | 0.01 | 0.01 | 58 | 1019.7 |
| 20260831193859 | 87 | 286 | 1.0 | 3.0 | 0.00 | 0.01 | 0.01 | 56 | 1019.7 |
| 20260831193354 | 89 | 342 | 2.0 | 8.0 | 0.00 | 0.01 | 0.01 | 55 | 1019.7 |
| 20260831192849 | 89 | 111 | 3.0 | 3.0 | 0.00 | 0.01 | 0.01 | 53 | 1019.7 |
| 20260831192344 | 87 | 357 | 0.0 | 3.0 | 0.00 | 0.01 | 0.01 | 55 | 1019.8 |
| 20260831191839 | 88 | 284 | 6.0 | 8.0 | 0.00 | 0.01 | 0.01 | 54 | 1019.7 |
| 20260831191335 | 88 | 285 | 4.0 | 8.0 | 0.00 | 0.01 | 0.01 | 54 | 1019.9 |
| 20260831190831 | 88 | 241 | 8.0 | 18.0 | 0.00 | 0.01 | 0.01 | 54 | 1019.9 |
| 20260831190326 | 88 | 186 | 8.0 | 8.0 | 0.00 | 0.01 | 0.01 | 52 | 1020.1 |
| 20260831185825 | 87 | 227 | 5.0 | 11.0 | 0.00 | 0.01 | 0.01 | 54 | 1020.3 |
| 20260831185321 | 87 | 268 | 3.0 | 7.0 | 0.00 | 0.01 | 0.01 | 55 | 1020.2 |
| 20260831184820 | 86 | 238 | 4.0 | 5.0 | 0.00 | 0.01 | 0.01 | 56 | 1020.2 |
| 20260831184316 | 86 | 266 | 4.0 | 8.0 | 0.00 | 0.01 | 0.01 | 58 | 1020.2 |
| 20260831183811 | 86 | 271 | 3.0 | 5.0 | 0.00 | 0.01 | 0.01 | 59 | 1020.3 |
| 20260831183310 | 86 | 119 | 2.0 | 5.0 | 0.00 | 0.01 | 0.01 | 60 | 1020.4 |
| 20260831182809 | 85 | 252 | 4.0 | 11.0 | 0.00 | 0.01 | 0.01 | 58 | 1020.4 |
| 20260831182305 | 85 | 248 | 2.0 | 3.0 | 0.00 | 0.01 | 0.01 | 64 | 1020.4 |
| 20260831181759 | 85 | 227 | 4.0 | 7.0 | 0.00 | 0.01 | 0.01 | 62 | 1020.4 |
| 20260831181254 | 86 | 173 | 3.0 | 4.0 | 0.00 | 0.01 | 0.01 | 60 | 1020.2 |
| 20260831180749 | 86 | 248 | 4.0 | 5.0 | 0.00 | 0.01 | 0.01 | 60 | 1020.3 |
| 20260831180244 | 86 | 254 | 2.0 | 4.0 | 0.00 | 0.01 | 0.01 | 59 | 1020.3 |
| 20260831175743 | 86 | 304 | 4.0 | 11.0 | 0.00 | 0.01 | 0.01 | 58 | 1020.4 |
| 20260831175240 | 86 | 289 | 2.0 | 4.0 | 0.00 | 0.01 | 0.01 | 59 | 1020.4 |
| 20260831174735 | 87 | 2 | 4.0 | 8.0 | 0.00 | 0.01 | 0.01 | 57 | 1020.3 |
| 20260831174231 | 86 | 321 | 2.0 | 3.0 | 0.00 | 0.01 | 0.01 | 59 | 1020.6 |
| 20260831173729 | 85 | 233 | 1.0 | 5.0 | 0.00 | 0.01 | 0.01 | 57 | 1020.3 |
| 20260831173229 | 86 | 268 | 5.0 | 7.0 | 0.00 | 0.01 | 0.01 | 55 | 1020.4 |
| 20260831172725 | 85 | 275 | 3.0 | 5.0 | 0.00 | 0.01 | 0.01 | 55 | 1020.5 |
| 20260831172220 | 85 | 312 | 3.0 | 8.0 | 0.00 | 0.01 | 0.01 | 57 | 1020.4 |
| 20260831171714 | 85 | 260 | 4.0 | 7.0 | 0.00 | 0.01 | 0.01 | 57 | 1020.5 |
| 20260831171212 | 85 | 206 | 3.0 | 7.0 | 0.00 | 0.01 | 0.01 | 56 | 1020.5 |
| 20260831170708 | 86 | 272 | 3.0 | 4.0 | 0.00 | 0.01 | 0.01 | 54 | 1020.5 |
| 20260831170205 | 86 | 301 | 2.0 | 4.0 | 0.00 | 0.01 | 0.01 | 54 | 1020.8 |
| 20260831165700 | 87 | 243 | 3.0 | 5.0 | 0.00 | 0.01 | 0.01 | 52 | 1020.5 |
| 20260831165156 | 87 | 351 | 2.0 | 4.0 | 0.00 | 0.01 | 0.01 | 51 | 1020.7 |
| 20260831164652 | 86 | 359 | 3.0 | 4.0 | 0.00 | 0.01 | 0.01 | 57 | 1020.5 |
| 20260831164148 | 86 | 262 | 7.0 | 8.0 | 0.00 | 0.01 | 0.01 | 58 | 1020.7 |
| 20260831163643 | 86 | 249 | 5.0 | 4.0 | 0.00 | 0.01 | 0.01 | 59 | 1020.5 |
| 20260831163139 | 84 | 298 | 1.0 | 1.0 | 0.00 | 0.01 | 0.01 | 63 | 1020.7 |
| 20260831162638 | 84 | 240 | 1.0 | 7.0 | 0.00 | 0.01 | 0.01 | 59 | 1020.6 |
| 20260831162136 | 85 | 234 | 5.0 | 7.0 | 0.00 | 0.01 | 0.01 | 58 | 1020.7 |
| 20260831161632 | 84 | 53 | 0.0 | 4.0 | 0.00 | 0.01 | 0.01 | 59 | 1020.8 |
| 20260831161129 | 85 | 352 | 1.0 | 11.0 | 0.00 | 0.01 | 0.01 | 60 | 1020.6 |
| 20260831160627 | 84 | 98 | 0.0 | 3.0 | 0.00 | 0.01 | 0.01 | 63 | 1020.6 |
| 20260831160122 | 83 | 331 | 1.0 | 8.0 | 0.00 | 0.01 | 0.01 | 64 | 1020.6 |
| 20260831155617 | 84 | 247 | 3.0 | 5.0 | 0.00 | 0.01 | 0.01 | 63 | 1020.7 |
| 20260831155112 | 83 | 0 | 5.0 | 7.0 | 0.00 | 0.01 | 0.01 | 65 | 1020.8 |
| 20260831154608 | 83 | 201 | 3.0 | 5.0 | 0.00 | 0.01 | 0.01 | 64 | 1020.6 |
| 20260831154108 | 83 | 237 | 3.0 | 7.0 | 0.00 | 0.01 | 0.01 | 67 | 1020.9 |
| 20260831153607 | 82 | 221 | 4.0 | 10.0 | 0.00 | 0.01 | 0.01 | 67 | 1020.6 |
| 20260831153104 | 82 | 211 | 3.0 | 7.0 | 0.00 | 0.01 | 0.01 | 68 | 1020.7 |
| 20260831152559 | 83 | 144 | 2.0 | 3.0 | 0.00 | 0.01 | 0.01 | 66 | 1020.8 |
| 20260831152055 | 84 | 238 | 6.0 | 8.0 | 0.00 | 0.01 | 0.01 | 65 | 1020.8 |
| 20260831151554 | 82 | 205 | 2.0 | 4.0 | 0.00 | 0.01 | 0.01 | 68 | 1020.9 |
| 20260831151049 | 81 | 220 | 4.0 | 10.0 | 0.00 | 0.01 | 0.01 | 70 | 1020.7 |
| 20260831150544 | 81 | 270 | 5.0 | 7.0 | 0.00 | 0.01 | 0.01 | 73 | 1020.7 |
| 20260831150040 | 81 | 227 | 7.0 | 8.0 | 0.00 | 0.01 | 0.01 | 71 | 1020.8 |
| 20260831145534 | 80 | 147 | 5.0 | 7.0 | 0.00 | 0.01 | 0.01 | 77 | 1020.9 |
| 20260831145030 | 79 | 241 | 2.0 | 5.0 | 0.00 | 0.01 | 0.01 | 79 | 1020.8 |
| 20260831144526 | 77 | 218 | 4.0 | 4.0 | 0.00 | 0.01 | 0.01 | 81 | 1021.0 |
| 20260831144021 | 76 | 247 | 1.0 | 5.0 | 0.00 | 0.01 | 0.01 | 84 | 1020.9 |
| 20260831143516 | 76 | 262 | 0.0 | 3.0 | 0.00 | 0.01 | 0.01 | 85 | 1021.1 |
| 20260831143011 | 76 | 247 | 2.0 | 5.0 | 0.00 | 0.01 | 0.01 | 85 | 1021.0 |
| 20260831142508 | 76 | 281 | 3.0 | 3.0 | 0.00 | 0.01 | 0.01 | 86 | 1020.9 |
| 20260831142002 | 75 | 288 | 3.0 | 4.0 | 0.00 | 0.01 | 0.01 | 86 | 1020.9 |
| 20260831141456 | 75 | 258 | 2.0 | 5.0 | 0.00 | 0.01 | 0.01 | 86 | 1020.8 |
| 20260831140951 | 76 | 276 | 2.0 | 4.0 | 0.00 | 0.01 | 0.01 | 85 | 1020.9 |
| 20260831140450 | 75 | 218 | 2.0 | 3.0 | 0.00 | 0.01 | 0.01 | 86 | 1020.7 |
| 20260831135949 | 75 | 252 | 3.0 | 4.0 | 0.00 | 0.01 | 0.01 | 86 | 1020.8 |
| 20260831135448 | 75 | 259 | 1.0 | 1.0 | 0.00 | 0.01 | 0.01 | 87 | 1020.6 |
| 20260831134943 | 74 | 234 | 1.0 | 1.0 | 0.00 | 0.01 | 0.01 | 88 | 1020.7 |
| 20260831134435 | 74 | 237 | 1.0 | 3.0 | 0.00 | 0.01 | 0.01 | 88 | 1020.7 |
| 20260831133934 | 73 | 181 | 3.0 | 3.0 | 0.00 | 0.01 | 0.01 | 90 | 1020.8 |
| 20260831133434 | 73 | 143 | 4.0 | 4.0 | 0.00 | 0.01 | 0.01 | 90 | 1020.9 |
| 20260831132930 | 72 | 144 | 1.0 | 1.0 | 0.00 | 0.01 | 0.01 | 92 | 1021.1 |
| 20260831132425 | 72 | 136 | 0.0 | 1.0 | 0.00 | 0.01 | 0.01 | 93 | 1021.0 |
| 20260831131924 | 71 | 135 | 0.0 | 3.0 | 0.00 | 0.01 | 0.01 | 94 | 1020.9 |
| 20260831131420 | 71 | 136 | 0.0 | 0.0 | 0.00 | 0.01 | 0.01 | 94 | 1020.8 |
| 20260831130916 | 71 | 137 | 0.0 | 0.0 | 0.00 | 0.01 | 0.01 | 94 | 1020.7 |
| 20260831130411 | 70 | 130 | 1.0 | 4.0 | 0.00 | 0.01 | 0.01 | 94 | 1020.8 |
| 20260831125910 | 70 | 112 | 2.0 | 3.0 | 0.00 | 0.01 | 0.01 | 94 | 1020.8 |
| 20260831125405 | 70 | 111 | 0.0 | 3.0 | 0.00 | 0.01 | 0.01 | 94 | 1020.9 |
| 20260831124901 | 70 | 108 | 2.0 | 1.0 | 0.00 | 0.01 | 0.01 | 94 | 1020.8 |
| 20260831124356 | 70 | 107 | 0.0 | 0.0 | 0.00 | 0.01 | 0.01 | 94 | 1020.9 |
| 20260831123851 | 70 | 107 | 0.0 | 0.0 | 0.00 | 0.01 | 0.01 | 94 | 1020.8 |
| 20260831123350 | 70 | 108 | 1.0 | 3.0 | 0.00 | 0.01 | 0.01 | 94 | 1020.7 |
| 20260831122845 | 70 | 102 | 2.0 | 3.0 | 0.00 | 0.01 | 0.01 | 94 | 1020.7 |
| 20260831122340 | 70 | 101 | 0.0 | 3.0 | 0.00 | 0.01 | 0.01 | 94 | 1020.8 |
| 20260831121840 | 70 | 60 | 1.0 | 1.0 | 0.00 | 0.01 | 0.01 | 94 | 1020.9 |
| 20260831121337 | 70 | 73 | 1.0 | 0.0 | 0.00 | 0.01 | 0.01 | 94 | 1020.8 |
| 20260831120832 | 70 | 73 | 1.0 | 1.0 | 0.00 | 0.01 | 0.01 | 94 | 1020.9 |
| 20260831120326 | 70 | 28 | 0.0 | 1.0 | 0.00 | 0.01 | 0.01 | 94 | 1020.9 |
| 20260831115821 | 69 | 268 | 2.0 | 4.0 | 0.00 | 0.01 | 0.01 | 95 | 1020.9 |
| 20260831115318 | 69 | 221 | 3.0 | 3.0 | 0.05 | 0.01 | 0.01 | 95 | 1020.9 |
| 20260831114817 | 69 | 99 | 0.0 | 4.0 | 0.05 | 0.01 | 0.01 | 95 | 1021.0 |
| 20260831114315 | 69 | 121 | 1.0 | 3.0 | 0.00 | 0.00 | 0.00 | 95 | 1020.9 |
| 20260831113811 | 69 | 16 | 1.0 | 1.0 | 0.00 | 0.00 | 0.00 | 95 | 1021.1 |
| 20260831113306 | 69 | 19 | 0.0 | 0.0 | 0.00 | 0.00 | 0.00 | 95 | 1021.0 |
| 20260831112800 | 69 | 20 | 0.0 | 0.0 | 0.00 | 0.00 | 0.00 | 95 | 1021.0 |
| 20260831112255 | 69 | 20 | 0.0 | 0.0 | 0.00 | 0.00 | 0.00 | 95 | 1020.9 |
| 20260831111750 | 69 | 19 | 0.0 | 1.0 | 0.00 | 0.00 | 0.00 | 95 | 1020.7 |
| 20260831111247 | 69 | 20 | 0.0 | 1.0 | 0.00 | 0.00 | 0.00 | 94 | 1020.5 |
| 20260831110743 | 69 | 27 | 0.0 | 0.0 | 0.00 | 0.00 | 0.00 | 94 | 1020.6 |
| 20260831110237 | 69 | 27 | 0.0 | 0.0 | 0.00 | 0.00 | 0.00 | 94 | 1020.7 |
| 20260831105736 | 69 | 27 | 0.0 | 0.0 | 0.00 | 0.00 | 0.00 | 93 | 1020.4 |
| 20260831105232 | 69 | 27 | 0.0 | 0.0 | 0.00 | 0.00 | 0.00 | 93 | 1020.4 |
| 20260831104726 | 69 | 27 | 0.0 | 0.0 | 0.00 | 0.00 | 0.00 | 93 | 1020.3 |
| 20260831104224 | 69 | 27 | 0.0 | 0.0 | 0.00 | 0.00 | 0.00 | 93 | 1020.3 |
| 20260831103723 | 69 | 27 | 0.0 | 0.0 | 0.00 | 0.00 | 0.00 | 93 | 1020.4 |
| 20260831103219 | 69 | 322 | 0.0 | 1.0 | 0.00 | 0.00 | 0.00 | 93 | 1020.3 |
| 20260831102718 | 69 | 348 | 0.0 | 0.0 | 0.00 | 0.00 | 0.00 | 93 | 1020.3 |
| 20260831102214 | 69 | 352 | 0.0 | 1.0 | 0.00 | 0.00 | 0.00 | 93 | 1020.2 |
| 20260831101709 | 69 | 66 | 1.0 | 1.0 | 0.00 | 0.00 | 0.00 | 93 | 1020.3 |
| 20260831101204 | 69 | 118 | 0.0 | 1.0 | 0.00 | 0.00 | 0.00 | 93 | 1020.2 |
| 20260831100700 | 69 | 118 | 1.0 | 1.0 | 0.00 | 0.00 | 0.00 | 93 | 1020.3 |
| 20260831100156 | 69 | 121 | 0.0 | 1.0 | 0.00 | 0.00 | 0.00 | 93 | 1020.1 |
| 20260831095654 | 69 | 116 | 3.0 | 4.0 | 0.00 | 0.00 | 0.00 | 93 | 1020.1 |
| 20260831095149 | 69 | 120 | 0.0 | 1.0 | 0.00 | 0.00 | 0.00 | 93 | 1020.1 |
| 20260831094644 | 69 | 98 | 0.0 | 3.0 | 0.00 | 0.00 | 0.00 | 94 | 1019.9 |
| 20260831094140 | 69 | 137 | 1.0 | 1.0 | 0.00 | 0.00 | 0.00 | 93 | 1019.9 |
| 20260831093636 | 69 | 136 | 0.0 | 1.0 | 0.00 | 0.00 | 0.00 | 93 | 1020.1 |
| 20260831093132 | 69 | 131 | 0.0 | 1.0 | 0.00 | 0.00 | 0.00 | 94 | 1020.2 |
| 20260831092628 | 69 | 112 | 0.0 | 1.0 | 0.00 | 0.00 | 0.00 | 94 | 1020.3 |
| 20260831092123 | 69 | 213 | 0.0 | 1.0 | 0.00 | 0.00 | 0.00 | 94 | 1020.2 |
| 20260831091623 | 69 | 213 | 0.0 | 1.0 | 0.00 | 0.00 | 0.00 | 94 | 1020.2 |
| 20260831091118 | 69 | 212 | 0.0 | 0.0 | 0.00 | 0.00 | 0.00 | 94 | 1020.2 |
| 20260831090614 | 69 | 208 | 0.0 | 1.0 | 0.00 | 0.00 | 0.00 | 94 | 1020.3 |
| 20260831090110 | 69 | 208 | 2.0 | 3.0 | 0.00 | 0.00 | 0.00 | 94 | 1020.3 |
| 20260831085605 | 69 | 149 | 1.0 | 1.0 | 0.00 | 0.00 | 0.00 | 94 | 1020.1 |
| 20260831085100 | 69 | 149 | 2.0 | 3.0 | 0.00 | 0.00 | 0.00 | 94 | 1020.3 |